Weather Roundup
Issued by NWS Springfield, MO

Home | Current Version | Previous Version | Text Only | Print | Product List | Glossary On
Versions: 1 2 3 4 5 6 7 8 9 10 11 12 13 14 15 16 17 18 19 20 21 22 23 24 25 26 27 28 29 30 31 32 33 34 35 36 37 38 39 40 41 42 43 44 45 46 47 48 49 50
000
NZUS99 KSGF 222207
HRRSGF

HOURLY WEATHER
NATIONAL WEATHER SERVICE SPRINGFIELD MO
500 PM CDT FRI MAY 22 2015

......SGF CWA......

CITY           SKY/WX    TMP DP  RH WIND       PRES   REMARKS
SPRINGFIELD    CLOUDY    64  44  48 E14       30.21F
JOPLIN         CLOUDY    65  47  52 SE8       30.20F
WEST PLAINS    CLOUDY    65  46  50 SE3       30.27S
ROLLA          CLOUDY    69  52  54 SE7       30.23F
OSAGE BEACH    CLOUDY    70  50  49 S5        30.25S
BRANSON        CLOUDY    63  48  59 E6        30.24F

......SURROUNDING SGF CWA......

CITY           SKY/WX    TMP DP  RH WIND       PRES   REMARKS
CHANUTE        CLOUDY    63  49  60 SE10      30.19F
PARSONS        CLOUDY    63  51  65 VRB3      30.21S
COFFEYVILLE    CLOUDY    64  52  64 SE6       30.19F
EMPORIA        CLOUDY    63  48  58 SE9       30.18F
GROVE OK       PTSUNNY   68  52  56 SE3       30.20S
ROGERS AR      CLOUDY    66  50  56 E12       30.21S
SILOAM SPRINGS CLOUDY    66  48  52 SE10      30.21R
HARRISON AR    CLOUDY    64  50  60 E9        30.23F
NEAR YELLVILLE CLOUDY    66  48  52 E3        30.22F

......KANSAS AND MISSOURI......

CITY           SKY/WX    TMP DP  RH WIND       PRES   REMARKS
KANSAS CTY INT CLOUDY    65  47  52 S9        30.23S
DOWNTOWN KC    CLOUDY    66  46  48 S8        30.22S
COLUMBIA       PTSUNNY   70  49  47 VRB5      30.24S
SEDALIA        CLOUDY    67  51  56 SE3       30.25F
ST JOSEPH      CLOUDY    66  48  52 E5        30.23S
ST LOUIS       CLOUDY    75  48  38 W10       30.24S
SPIRIT OF STL  PTSUNNY   74  50  42 W7        30.22F
KIRKSVILLE     CLOUDY    67  53  61 SW6       30.24R
WICHITA        CLOUDY    60  54  80 SE12      30.15F
TOPEKA         CLOUDY    63  46  54 SE10      30.22S
OLATHE         LGT RAIN  63  52  67 SE5       30.23S

......TENNESSEE......

CITY           SKY/WX    TMP DP  RH WIND       PRES   REMARKS
MEMPHIS        PTSUNNY   75  44  33 VRB7      30.23S
NASHVILLE      MOSUNNY   74  42  31 E3        30.26S

......ARKANSAS.......

CITY           SKY/WX    TMP DP  RH WIND       PRES   REMARKS
FAYETTEVILLE   CLOUDY    65  49  56 E9        30.20S
FT SMITH       CLOUDY    61  55  81 E6        30.18F
LITTLE ROCK    PTSUNNY   70  49  47 E10       30.22F

......OKLAHOMA.......

CITY           SKY/WX    TMP DP  RH WIND       PRES   REMARKS
TULSA          CLOUDY    63  53  70 SE9       30.17F
PONCA CITY     CLOUDY    62  55  77 SE16      30.15F
MCALESTER      CLOUDY    59  56  89 SE8       30.16F
OKLAHOMA CITY  DRIZZLE   56  54  93 SE8       30.15S FOG

......IOWA............

CITY           SKY/WX    TMP DP  RH WIND       PRES   REMARKS
DES MOINES     CLOUDY    75  39  27 W6        30.19F
QUAD CITIES    CLOUDY    77  37  23 NW6       30.18F

......ILLINOIS........

CITY           SKY/WX    TMP DP  RH WIND       PRES   REMARKS
QUINCY         CLOUDY    73  43  33 W6        30.21S
CHICAGO        PTSUNNY   62  25  24 E10       30.24S



USA.gov is the U.S. government's official web portal to all federal, state and local government web resources and services.